Location: Jetmore Oil Field
(38.1181°N, 99.9337°W)
Time: 21:19:36
(UTC+00:00)

COSMO-SKYMED 1 - Pass Details

Date: 17 February 2020
Orbit: 621 x 623 km, 97.9° (Epoch: 29 March)

Event Time Altitude Azimuth Distance (km) Brightness Sun altitude
Rises 01:09:04 0° 5° (N) 2,911 5.9 -10.5°
Reaches altitude 10° 01:11:20 10° 359° (N) 2,000 5.1 -10.9°
Maximum altitude 01:15:28 46° 287° (WNW) 843 3.7 -11.7°
Drops below altitude 10° 01:19:36 10° 214° (SW) 1,985 5.7 -12.5°
Sets 01:21:51 0° 208° (SSW) 2,886 6.5 -13.0°
